"Pseudo-MPEC" for P10NVB5

Created 2019 May 18 3:07:20 UT using Find_Orb

Click here for an explanation of pseudo-MPECs

 
 Astrometry: 
     P10NVB5  C2019 05 12)a%ZqrgjENA/uAstrometryI_%hIWCKZP,hHc9ZlT:'K2HpWP7AKF51
     P10NVB5  C2019 05 12aZ(@redacted;QwFVWPbScl:0FTkK@9ARi3MnN-vn0'lclick0]#F51
     P10NVB5  C2019 05 12`y#9YA_tQ_(B1#5,U$heres(LGiISPbforcheexplanation$gCqF51

Station data:
(F51) Pan-STARRS 1, Haleakala  (N20.707235 W156.255910)  US/Hawaii.
   Observers N. Primak, A. Schultz, S. Watters, J. Thiel, T. Goggia. Measurer
   PS1 Science Consortium. 1.8-m Ritchey-Chrétien + CCD.

Orbital elements:  P10NVB5
   Perihelion 2019 May 18.163544 +/- 30.4 TT =  3:55:30 (JD 2458621.663544)
Epoch 2019 May 13.0 TT = JDT 2458616.5   Earth MOID: 0.2110   Ma: 0.0544
M 358.70567657 +/- 46               (J2000 ecliptic)          AutoNEOCP
n   0.25066573 +/- 0.455            Peri.  185.70859 +/- 60
a   2.49118551 +/- 3.11             Node    67.51020 +/- 19
e   0.5081797 +/- 0.248             Incl.    4.81930 +/- 60
P   3.93                   H 21.0   G  0.15   U 12.2  SR
q 1.22521551 +/- 0.44    Q 3.75715552 +/- 21.5
From 3 observations 2019 May 12 (24.3 min); mean residual 0".02
Residuals in arcseconds: 
190512 F51  .01-  .01+    190512 F51  .02+  .03-    190512 F51  .01-  .01+    

Ephemerides (geocentric):
Date (UTC) HH   RA              Dec         delta   r     elong  mag " sig PA
---- -- -- --  -------------   -----------  ------ ------ -----  --- ---- ---
2019 05 18 03  20 16 30.796   -21 18 10.75  .38471 1.2252 115.1 21.2  58d 165
2019 05 18 04  20 16 40.130   -21 18 18.21  .38466 1.2252 115.1 21.2  58d 165
2019 05 18 05  20 16 49.459   -21 18 25.66  .38461 1.2252 115.1 21.2  58d 165
2019 05 18 06  20 16 58.783   -21 18 33.11  .38456 1.2252 115.1 21.2  58d 165
2019 05 18 07  20 17 08.103   -21 18 40.54  .38451 1.2252 115.1 21.2  58d 165
2019 05 18 08  20 17 17.419   -21 18 47.97  .38446 1.2252 115.1 21.2  58d 165
2019 05 18 09  20 17 26.729   -21 18 55.39  .38441 1.2252 115.1 21.2  58d 165
2019 05 18 10  20 17 36.035   -21 19 02.81  .38436 1.2252 115.2 21.2  58d 165
2019 05 18 11  20 17 45.336   -21 19 10.21  .38431 1.2252 115.2 21.2  58d 165
2019 05 18 12  20 17 54.633   -21 19 17.61  .38426 1.2252 115.2 21.2  58d 165
2019 05 18 13  20 18 03.925   -21 19 25.00  .38421 1.2252 115.2 21.2  58d 165
2019 05 18 14  20 18 13.212   -21 19 32.39  .38416 1.2252 115.2 21.2  58d 165
2019 05 18 15  20 18 22.495   -21 19 39.76  .38411 1.2252 115.2 21.2  58d 165
2019 05 18 16  20 18 31.773   -21 19 47.13  .38406 1.2252 115.2 21.2  58d 165
2019 05 18 17  20 18 41.046   -21 19 54.49  .38401 1.2252 115.2 21.2  58d 165
2019 05 18 18  20 18 50.314   -21 20 01.85  .38396 1.2252 115.2 21.2  58d 165
2019 05 18 19  20 18 59.578   -21 20 09.19  .38391 1.2252 115.2 21.2  58d 165
2019 05 18 20  20 19 08.837   -21 20 16.53  .38386 1.2252 115.2 21.2  58d 165
2019 05 18 21  20 19 18.091   -21 20 23.86  .38381 1.2252 115.2 21.2  58d 165
2019 05 18 22  20 19 27.341   -21 20 31.19  .38376 1.2252 115.2 21.2  58d 165
2019 05 18 23  20 19 36.586   -21 20 38.51  .38371 1.2252 115.2 21.2  59d 165
2019 05 19 00  20 19 45.826   -21 20 45.82  .38366 1.2253 115.2 21.2  59d 165
2019 05 19 01  20 19 55.061   -21 20 53.12  .38362 1.2253 115.2 21.2  59d 165
2019 05 19 02  20 20 04.291   -21 21 00.42  .38357 1.2253 115.2 21.2  59d 165
2019 05 19 03  20 20 13.517   -21 21 07.71  .38352 1.2253 115.2 21.2  59d 165
2019 05 19 04  20 20 22.738   -21 21 14.99  .38347 1.2253 115.2 21.2  59d 165
2019 05 19 05  20 20 31.954   -21 21 22.27  .38342 1.2253 115.3 21.1  59d 165
2019 05 19 06  20 20 41.165   -21 21 29.54  .38338 1.2253 115.3 21.1  59d 165
2019 05 19 07  20 20 50.371   -21 21 36.80  .38333 1.2253 115.3 21.1  59d 165
2019 05 19 08  20 20 59.573   -21 21 44.05  .38328 1.2253 115.3 21.1  59d 165
2019 05 19 09  20 21 08.770   -21 21 51.30  .38323 1.2253 115.3 21.1  59d 165
2019 05 19 10  20 21 17.962   -21 21 58.54  .38319 1.2253 115.3 21.1  59d 165
2019 05 19 11  20 21 27.149   -21 22 05.78  .38314 1.2253 115.3 21.1  59d 165
2019 05 19 12  20 21 36.331   -21 22 13.01  .38309 1.2253 115.3 21.1  59d 165
2019 05 19 13  20 21 45.508   -21 22 20.23  .38305 1.2253 115.3 21.1  59d 165
2019 05 19 14  20 21 54.680   -21 22 27.44  .38300 1.2253 115.3 21.1  59d 165
2019 05 19 15  20 22 03.848   -21 22 34.65  .38295 1.2253 115.3 21.1  59d 165
2019 05 19 16  20 22 13.010   -21 22 41.86  .38291 1.2253 115.3 21.1  60d 165
2019 05 19 17  20 22 22.168   -21 22 49.05  .38286 1.2253 115.3 21.1  60d 165
2019 05 19 18  20 22 31.321   -21 22 56.24  .38281 1.2253 115.3 21.1  60d 165
2019 05 19 19  20 22 40.469   -21 23 03.43  .38277 1.2253 115.3 21.1  60d 165
2019 05 19 20  20 22 49.611   -21 23 10.60  .38272 1.2254 115.3 21.1  60d 165
2019 05 19 21  20 22 58.749   -21 23 17.77  .38268 1.2254 115.3 21.1  60d 165
2019 05 19 22  20 23 07.882   -21 23 24.94  .38263 1.2254 115.4 21.1  60d 165
2019 05 19 23  20 23 17.010   -21 23 32.10  .38258 1.2254 115.4 21.1  60d 165
2019 05 20 00  20 23 26.133   -21 23 39.25  .38254 1.2254 115.4 21.1  60d 165
2019 05 20 01  20 23 35.251   -21 23 46.40  .38249 1.2254 115.4 21.1  60d 165
2019 05 20 02  20 23 44.364   -21 23 53.54  .38245 1.2254 115.4 21.1  60d 165